Dewpoint
60 60 58 58 59 59 59 58 55 53 54 55 57 59 60 60 59 60 59 57 58 59 59 60 60 60 61 61 62 61 61 61 60 60 62 61 60 58
59 59 60 59 59 59 59 58 58 57 54 56 57 58 59 59 59 60 59 55 57 58 58 58 58 58 59 59 59 60 60 60 60 59 59 60 59 58
57 58 58 59 59 59 59 59 59 59 56 57 57 57 57 58 58 59 58 58 58 56 57 58 57 57 57 57 57 58 59 59 59 59 58 58 59 59
55 56 57 58 58 58 58 58 58 59 58 56 57 57 57 57 57 57 57 57 57 56 56 56 57 56 56 56 56 56 56 56 57 57 57 58 58 58
54 55 55 56 57 58 58 58 58 58 59 58 57 58 58 55 54 54 55 55 54 53 55 55 56 56 56 56 55 55 54 54 55 55 55 55 56 57
53 54 55 55 56 57 58 58 58 58 58 57 57 57 56 52 52 52 52 51 53 52 53 54 54 54 55 55 54 53 52 53 54 54 54 53 53 54
52 53 54 54 52 55 57 57 58 57 56 56 55 54 52 48 49 50 50 50 50 50 50 51 51 51 52 53 52 51 51 52 52 53 53 53 53 52
50 51 52 51 52 53 51 49 50 55 55 55 55 53 51 49 48 48 48 46 46 48 48 48 48 48 50 50 51 51 51 52 52 52 52 52 52 52
51 49 48 48 50 49 48 47 46 46 46 48 47 45 45 44 44 43 44 44 45 46 45 44 46 46 48 49 49 50 50 50 50 50 50 50 50 51
45 45 45 45 47 46 44 43 43 43 43 43 43 43 43 43 43 43 42 41 41 42 43 37 42 42 42 43 46 47 48 48 48 48 48 48 48 48
43 44 44 44 45 45 43 41 41 41 42 42 42 42 42 41 40 40 36 35 35 37 38 38 38 37 36 37 39 42 43 44 45 46 47 47 47 47
41 42 43 42 43 42 41 41 39 39 39 38 37 38 38 39 39 37 36 33 33 34 36 35 34 35 35 35 35 38 38 41 42 43 44 46 47 46
38 38 39 40 40 40 40 39 38 38 37 35 35 34 34 34 34 35 34 34 33 33 37 36 33 34 34 34 35 36 38 36 36 38 40 42 43 44
36 36 37 37 36 36 36 36 35 34 33 32 31 31 31 32 32 32 33 33 34 33 35 35 32 33 33 32 32 34 35 36 36 36 36 38 40 40
34 34 34 33 33 32 33 33 32 29 28 27 27 28 30 30 30 26 28 31 30 32 33 33 33 32 32 31 31 32 33 34 35 35 36 36 35 35
33 32 31 31 31 30 29 28 28 27 26 24 25 25 25 23 23 23 20 21 26 24 28 32 33 32 30 31 30 30 32 30 33 32 33 33 34 35
28 26 26 25 25 25 26 26 26 25 25 25 25 23 25 26 23 20 17 18 20 22 25 27 32 32 32 29 28 29 28 29 30 31 32 32 33 33
26 24 24 24 24 24 24 24 24 24 24 25 22 22 23 21 17 18 15 13 14 16 20 26 26 28 27 24 31 28 28 28 29 31 31 30 30 31
26 25 25 25 24 24 24 22 21 22 21 17 15 14 16 15 16 12 13 14 15 16 17 25 26 27 23 21 24 31 28 29 29 29 29 31 31 31
26 25 24 24 23 22 21 21 21 18 17 15 12 10 7 9 8 11 15 12 16 18 19 19 26 27 26 25 25 28 31 29 29 28 27 29 32 35
26 26 26 25 24 22 23 23 22 18 16 9 9 9 9 7 11 14 16 22 21 13 18 19 22 28 27 28 27 25 26 28 31 30 29 27 27 27
25 25 25 25 24 22 23 22 20 19 19 16 11 9 8 7 12 16 18 18 19 20 20 21 23 24 24 25 23 23 25 23 28 31 31 33 27 23
24 24 24 24 20 20 19 20 19 18 17 16 15 14 7 12 15 17 17 18 19 19 19 19 21 23 24 23 24 24 24 20 21 24 28 33 33 33
Lifted_Index
2 1 1 1 2 2 1 1 1 1 1 1 1 1 1 1 2 2 2 2 3 3 2 2 1 1 1 1 1 1 1 2 3 4 4 3 4 4
1 1 1 1 1 1 2 1 1 1 1 1 1 1 1 2 2 2 2 2 2 2 2 2 2 2 1 1 1 1 1 2 3 4 4 4 4 4
2 1 1 0 0 1 1 1 1 1 1 1 1 1 1 2 2 2 2 2 2 2 2 2 2 2 2 2 2 2 2 2 3 3 4 4 4 4
2 1 1 0 0 0 1 1 1 1 0 1 1 1 1 1 1 1 1 2 2 2 2 2 2 2 1 1 2 2 2 2 2 3 3 4 4 4
2 1 1 0 -0 -0 -0 -0 0 0 0 0 1 1 1 1 1 1 1 2 2 2 2 2 1 1 1 1 1 2 2 2 2 2 3 3 3 3
2 1 1 0 -0 -1 -1 -1 -1 -0 -0 0 1 1 1 1 1 1 2 2 2 2 2 2 1 2 2 2 2 2 2 2 3 3 3 3 3 3
2 1 1 0 -0 -1 -1 -1 -0 -0 0 0 1 1 1 1 2 2 2 2 2 2 2 2 2 2 2 3 3 3 4 3 3 3 3 3 4 4
1 1 0 0 -0 -0 -0 0 0 1 1 1 1 1 2 2 2 2 3 2 2 2 2 3 3 3 4 4 5 5 5 5 5 5 5 5 5 6
-0 -0 0 -0 -0 -0 0 1 2 2 2 2 2 2 2 3 3 3 3 3 3 4 4 4 5 5 6 6 7 7 7 8 8 8 8 8 8 8
0 0 -0 -0 -0 0 1 2 3 3 3 3 3 3 3 4 4 4 4 4 4 5 6 6 7 7 8 8 9 9 9 10 10 10 10 9 9 9
2 1 1 1 1 1 2 2 3 3 4 4 4 5 6 6 6 6 6 6 7 8 9 10 10 11 11 11 12 12 11 11 11 11 11 10 10 10
3 3 2 2 2 2 3 4 4 4 5 6 7 8 9 10 10 10 10 10 11 12 13 13 14 14 15 15 15 14 13 13 12 12 12 11 11 11
5 5 5 5 6 6 7 8 8 9 9 10 11 12 14 14 15 15 15 15 15 15 16 16 17 17 17 17 17 16 15 14 13 13 12 12 13 13
10 10 10 11 12 13 13 14 14 14 14 15 15 16 17 17 18 18 18 18 18 18 18 18 18 18 18 17 17 17 16 15 14 14 13 13 14 14
15 15 16 16 16 17 17 18 18 18 18 17 18 18 18 19 19 19 19 19 19 19 19 19 19 19 18 18 17 17 16 16 15 15 14 14 14 14
18 18 18 18 18 18 19 19 19 19 19 18 19 19 19 20 20 20 20 20 19 19 20 20 20 19 19 18 18 17 16 16 16 16 15 15 15 15
19 19 19 19 19 19 19 19 20 20 20 20 20 20 20 20 20 21 21 20 20 19 19 20 20 20 19 18 18 17 17 17 17 17 16 15 14 13
19 19 19 19 19 19 19 20 20 20 21 21 21 20 20 20 21 21 21 21 20 20 20 20 20 19 18 18 18 18 17 17 17 17 16 14 12 10
18 18 18 19 19 19 20 20 20 21 21 21 21 21 21 21 20 20 20 20 20 20 20 20 19 18 18 17 18 18 18 17 16 15 13 11 10 9
18 18 18 18 18 19 20 20 20 21 21 21 21 21 20 20 20 20 19 19 19 19 19 19 19 19 19 18 18 17 17 16 14 12 10 9 9 8
16 16 17 17 18 18 19 20 20 20 20 20 20 20 20 20 19 19 19 19 18 18 18 18 19 20 20 19 17 15 14 13 11 10 9 8 8 8
15 15 15 16 16 17 18 18 18 18 19 19 19 20 19 19 19 19 19 19 19 18 18 19 19 20 19 17 14 12 10 9 9 9 9 9 8 8
14 14 14 15 15 16 16 17 17 18 18 19 19 19 19 19 19 19 19 19 19 18 18 19 19 19 17 15 12 10 8 8 8 8 8 9 10 10